Voltar ao catálogo

SL-14 R/B

AtivoPO
NORAD 21656·ROCKET BODY·🇷🇺 Russia

Lançado Aug 15, 1991 de Plesetsk Cosmodrome

Loading…

Próximas Passagens (próximas 24 horas)

TLE

AtualizadoSource: Space-Track

Época: Sep 14, 2026, 10:52 UTC

1 21656U 91056B   26257.45302811 -.00000007  00000-0 -48852-4 0  9997
2 21656  82.5440  64.3414 0024261 203.0377 184.8727 13.20284431687190

Acompanhe SL-14 R/B em tempo real com AllMySat

Download on the App Store